[[{"header":{"parameterUnit":"m.s-1","parameterCategory":1,"la1":30.2991,"la2":30.254,"lo1":-89.0895,"lo2":-89.0444,"dy":0.0017,"dx":0.0017,"nx":28,"ny":28,"refTime":"2023-08-27T03:00:00:Z","depth":0,"parameterNumber":2,"parameterNumberName":"U-component_of_WINDS"},"data":[0,0,0,0,0,0,0,0,0,0,0,0,0,0,0,0,0,0,0,0,0,0,0,0,0,0,0,0,0,0,0,0,0,0,0,0,0,0,0,0,0,0,0,0,0,0,0,0,0,0,0,0,0,0,0,0,0,0,0.4799,0.48,0,0.4823,0.4824,0.4824,0.4834,0.4834,0.4834,0.4834,0.4859,0.4859,0.486,0,0,0,0,0,0,0,0,0,0,0,0,0,0.4763,0.4763,0.4799,0.48,0.48,0.4823,0.4824,0.4824,0.4834,0.4834,0.4834,0.4834,0.4859,0.4859,0.486,0,0,0,0,0,0,0,0,0,0,0,0,0,0.4782,0.4764,0.4799,0.4808,0.4809,0.4823,0.4824,0.4824,0.4834,0.4834,0.4834,0.4834,0.4858,0.4859,0.486,0.4868,0,0,0.4863,0.4864,0,0,0,0,0,0,0,0,0.4781,0.4783,0.4806,0.4807,0.4808,0.4826,0.482,0.4839,0.4834,0.4825,0.4834,0.4834,0.4848,0.485,0.4854,0.4869,0.487,0.4864,0.4864,0.4865,0.4865,0,0,0,0,0,0,0,0.4779,0.4782,0.4809,0.4807,0.4808,0.4811,0.4813,0.4823,0.4836,0.4826,0.4826,0.4829,0.4848,0.4853,0.4855,0.487,0.4864,0.4864,0.4865,0.4865,0.4893,0.4893,0,0,0,0,0,0,0.4777,0.4781,0.4808,0.481,0.4794,0.4811,0.4814,0.482,0.4836,0.4839,0.4829,0.483,0.4852,0.4854,0.4856,0.4866,0.4865,0.4866,0.4866,0.4893,0.4893,0.4893,0,0,0,0,0,0,0.4776,0.4779,0.4807,0.4796,0.4799,0.4812,0.4819,0.4821,0.4826,0.4839,0.4841,0.4832,0.4852,0.4854,0.4865,0.4867,0.4866,0.4867,0.4893,0.4893,0.4893,0.4887,0,0,0,0,0,0,0.4775,0.4779,0.4781,0.4796,0.48,0.4815,0.4819,0.4821,0.4828,0.4828,0.4842,0.4844,0.4852,0.4863,0.4866,0.4869,0.4868,0.4893,0.4893,0.4893,0.4887,0.4887,0.4887,0,0,0,0,0,0.4773,0.4778,0.4781,0.4785,0.4804,0.4816,0.4818,0.4827,0.4828,0.4831,0.4839,0.4844,0.4867,0.4864,0.4867,0.487,0.4893,0.4893,0.4893,0.4887,0.4887,0.4887,0,0,0,0,0,0,0.4763,0.478,0.4784,0.4793,0.4803,0.4817,0.4821,0.4826,0.4836,0.4836,0.4846,0.4849,0.4859,0.4866,0.4863,0.4879,0.488,0.4881,0.4874,0.4874,0.4874,0.4872,0.4869,0,0,0,0,0,0.4762,0.4771,0.4785,0.4792,0.4797,0.4808,0.4814,0.482,0.483,0.4834,0.4844,0.4853,0.4863,0.4869,0.4878,0.4888,0.4892,0.4892,0.4892,0.4891,0.4892,0.4899,0.4899,0.4894,0.4894,0.4894,0,0,0.476,0.477,0.4775,0.479,0.4798,0.4807,0.4811,0.482,0.4827,0.4835,0.4846,0.4853,0.4865,0.4876,0.4881,0.4882,0.4894,0.4892,0.4892,0.4892,0.4899,0.4899,0.49,0.4895,0.4895,0.4895,0,0,0.4761,0.4769,0.4776,0.4785,0.4797,0.4805,0.4807,0.4821,0.4826,0.4837,0.4844,0.4852,0.4868,0.4877,0.4883,0.4888,0.4893,0.4891,0.489,0.4896,0.4897,0.4897,0.4899,0.49,0.4891,0.4891,0.4891,0,0.4756,0.477,0.4779,0.4788,0.4795,0.4804,0.4811,0.4819,0.4834,0.4839,0.4839,0.486,0.4869,0.4882,0.4883,0.4888,0.4891,0.4889,0.4896,0.4896,0.4897,0.4899,0.49,0.4891,0.4891,0.4891,0.4891,0,0.4764,0.4773,0.4778,0.4792,0.48,0.4808,0.4819,0.4825,0.4831,0.4839,0.4851,0.4861,0.4873,0.4877,0.4882,0.4891,0.4891,0.4894,0.4895,0.4897,0.4899,0.49,0.4891,0.4891,0.4891,0.4891,0,0,0.4758,0.4779,0.478,0.4788,0.4803,0.481,0.4819,0.4831,0.4837,0.4847,0.4855,0.4869,0.4872,0.4879,0.4886,0.4891,0.4895,0.4893,0.4894,0.4894,0.4906,0.4904,0.4905,0.4899,0.4899,0.4899,0.4905,0,0.4761,0.4777,0.4787,0.4799,0.4808,0.4817,0.4825,0.4836,0.4844,0.4853,0.4861,0.4871,0.4874,0.4879,0.4884,0.4894,0.4898,0.4893,0.4907,0.4907,0.4903,0.4906,0.4904,0.4909,0.4906,0.4907,0.4907,0,0.4766,0.4777,0.479,0.4805,0.481,0.4816,0.4829,0.4837,0.485,0.4855,0.4864,0.4871,0.4881,0.4882,0.4896,0.4893,0.4899,0.4904,0.4905,0.4906,0.4907,0.4908,0.4911,0.4912,0.4908,0.4908,0.4908,0,0.4761,0.4779,0.4789,0.4795,0.4813,0.4818,0.4825,0.4838,0.4845,0.4856,0.4861,0.4873,0.4879,0.4889,0.4899,0.4898,0.4912,0.4914,0.4917,0.4917,0.492,0.4919,0.4924,0.4924,0.4924,0.4924,0.4924,0,0.4763,0.4771,0.4787,0.4794,0.4803,0.4815,0.4824,0.4832,0.4843,0.4852,0.4861,0.4868,0.4881,0.4891,0.4899,0.491,0.4913,0.4918,0.492,0.4917,0.4917,0.4921,0.4921,0.4924,0.4924,0.4924,0.4924,0,0.4758,0.477,0.4782,0.4798,0.4803,0.4809,0.4823,0.483,0.4839,0.485,0.4853,0.4867,0.4878,0.489,0.4905,0.4911,0.4922,0.4925,0.4918,0.4919,0.4922,0.4922,0.493,0.4932,0.493,0.493,0.493,0,0.4759,0.4765,0.4783,0.4789,0.4797,0.4807,0.4815,0.4827,0.4834,0.4849,0.4855,0.4867,0.4878,0.4897,0.4908,0.492,0.4923,0.4926,0.4925,0.4923,0.4924,0.4923,0.4924,0.4925,0.4925,0.4925,0.4925,0,0.4759,0.4764,0.4775,0.4788,0.4797,0.4808,0.4819,0.4824,0.4837,0.4846,0.4858,0.4867,0.4883,0.4896,0.491,0.4918,0.4924,0.4925,0.4927,0.4924,0.492,0.4922,0.4918,0.4925,0.4925,0.4925,0.4925,0.4925,0.4757,0.4763,0.4777,0.4789,0.4799,0.4809,0.4817,0.4827,0.4838,0.4852,0.4859,0.4871,0.4885,0.4904,0.4912,0.4923,0.4924,0.4926,0.4926,0.4927,0.4926,0.4918,0.4925,0.4925,0.4925,0.4925,0.4925,0,0.4757,0.4767,0.4778,0.4793,0.4803,0.4808,0.4821,0.4829,0.484,0.4852,0.4863,0.4878,0.489,0.4903,0.4917,0.4922,0.4926,0.4926,0.4925,0.4927,0.4924,0.4922,0.4923,0.4923,0.4923,0.4923,0.4923,0.4923,0.4759,0.477,0.4778,0.4795,0.4804,0.4817,0.4824,0.4834,0.4844,0.486,0.4871,0.4879,0.4892,0.4906,0.4918,0.4922,0.4927,0.4926,0.493,0.4927,0.4927,0.4927,0.4925,0.4927,0.4927,0.4932,0.4932,0.4932]},{"header":{"parameterUnit":"m.s-1","parameterCategory":1,"la1":30.2991,"la2":30.254,"lo1":-89.0895,"lo2":-89.0444,"dy":0.0017,"dx":0.0017,"nx":28,"ny":28,"refTime":"2023-08-27T03:00:00:Z","depth":0,"parameterNumber":3,"parameterNumberName":"V-component_of_WINDS"},"data":[0,0,0,0,0,0,0,0,0,0,0,0,0,0,0,0,0,0,0,0,0,0,0,0,0,0,0,0,0,0,0,0,0,0,0,0,0,0,0,0,0,0,0,0,0,0,0,0,0,0,0,0,0,0,0,0,0,0,2.4117,2.4118,0,2.4213,2.4214,2.4215,2.4217,2.4215,2.4214,2.4213,2.431,2.4313,2.4317,0,0,0,0,0,0,0,0,0,0,0,0,0,2.3935,2.3938,2.4117,2.4118,2.4119,2.4213,2.4214,2.4215,2.4217,2.4215,2.4214,2.4213,2.4309,2.4313,2.4317,0,0,0,0,0,0,0,0,0,0,0,0,0,2.402,2.3939,2.4117,2.4131,2.4134,2.4212,2.4214,2.4216,2.4217,2.4215,2.4214,2.4212,2.4307,2.4313,2.4318,2.4388,0,0,2.4335,2.4337,0,0,0,0,0,0,0,0,2.4015,2.4027,2.4128,2.4131,2.4133,2.4201,2.4185,2.4273,2.4218,2.4185,2.4213,2.4211,2.4275,2.4283,2.4305,2.4393,2.4397,2.4335,2.4339,2.4341,2.4343,0,0,0,0,0,0,0,2.4009,2.4023,2.4155,2.413,2.4133,2.4133,2.4143,2.4202,2.4239,2.4188,2.4188,2.42,2.4276,2.43,2.4307,2.4398,2.4335,2.434,2.4344,2.4346,2.4548,2.455,0,0,0,0,0,0,2.4001,2.4018,2.4152,2.4158,2.4069,2.4138,2.4149,2.4181,2.4238,2.4245,2.4201,2.42,2.4291,2.4301,2.4311,2.4397,2.4341,2.4346,2.435,2.4546,2.4549,2.4551,0,0,0,0,0,0,2.3997,2.4013,2.4148,2.4088,2.4105,2.4143,2.4179,2.4184,2.4207,2.4248,2.4255,2.4219,2.429,2.4303,2.4369,2.44,2.4349,2.4354,2.4544,2.4547,2.455,2.4569,0,0,0,0,0,0,2.3992,2.4011,2.4038,2.4089,2.4108,2.4205,2.418,2.4187,2.4217,2.4216,2.4266,2.4273,2.429,2.4361,2.4374,2.4407,2.4358,2.4541,2.4545,2.4549,2.4566,2.4573,2.4578,0,0,0,0,0,2.3985,2.404,2.404,2.4056,2.4143,2.4207,2.4218,2.4237,2.422,2.4247,2.4274,2.4271,2.4394,2.4367,2.4383,2.4417,2.4539,2.4544,2.4549,2.4563,2.4571,2.4578,0,0,0,0,0,0,2.3992,2.4046,2.4047,2.412,2.4159,2.4207,2.4242,2.4244,2.4289,2.4285,2.4306,2.4317,2.4383,2.4407,2.4376,2.4488,2.4465,2.4473,2.4471,2.4479,2.4485,2.4478,2.4363,0,0,0,0,0,2.4002,2.4049,2.4094,2.4154,2.4173,2.4205,2.4233,2.4244,2.4285,2.4301,2.4332,2.4372,2.4419,2.445,2.4496,2.4569,2.458,2.4601,2.4607,2.4612,2.4618,2.4659,2.4669,2.4566,2.4566,2.4566,0,0,2.4023,2.4058,2.4087,2.4156,2.4188,2.4236,2.4218,2.427,2.4306,2.4309,2.4373,2.4398,2.4443,2.4513,2.4545,2.4535,2.4649,2.4617,2.4621,2.4625,2.4665,2.4675,2.4683,2.4569,2.4569,2.4568,0,0,2.4086,2.4117,2.4171,2.4203,2.4251,2.4271,2.4284,2.4333,2.4349,2.4414,2.4417,2.446,2.4541,2.4574,2.4601,2.4677,2.4677,2.4691,2.4723,2.4763,2.4771,2.4778,2.4806,2.4816,2.4698,2.4698,2.4698,0,2.4105,2.4179,2.4198,2.4251,2.4281,2.4286,2.434,2.437,2.443,2.4451,2.4438,2.4541,2.4572,2.465,2.4668,2.469,2.4705,2.4686,2.4769,2.4776,2.4783,2.481,2.482,2.4699,2.4699,2.4699,2.4699,0,2.4201,2.4252,2.429,2.4349,2.4383,2.4436,2.4463,2.4496,2.4503,2.4525,2.4592,2.4629,2.4683,2.4702,2.471,2.4781,2.4773,2.4764,2.4741,2.4794,2.4819,2.483,2.4701,2.4701,2.47,2.47,0,0,2.4271,2.4341,2.4354,2.4381,2.4435,2.4474,2.4527,2.4581,2.4609,2.465,2.4695,2.4764,2.4756,2.4787,2.4799,2.4833,2.4892,2.482,2.4822,2.4833,2.4973,2.498,2.4992,2.4892,2.4894,2.4895,2.497,0,2.4341,2.4436,2.4455,2.4537,2.4585,2.459,2.4637,2.4674,2.4696,2.4739,2.4763,2.4812,2.4798,2.4816,2.4851,2.4877,2.492,2.4872,2.4934,2.4936,2.4923,2.5005,2.5013,2.5081,2.498,2.4981,2.4983,0,2.4434,2.4479,2.4567,2.4614,2.4635,2.4677,2.4727,2.4768,2.4811,2.4825,2.4859,2.4867,2.4922,2.4896,2.4973,2.494,2.4966,2.4983,2.4986,2.4993,2.4963,2.5015,2.5103,2.5114,2.4998,2.4997,2.4996,0,2.4477,2.4559,2.4622,2.4645,2.4702,2.4732,2.4757,2.4798,2.4829,2.4873,2.4893,2.4943,2.497,2.5008,2.5029,2.5008,2.5104,2.508,2.5117,2.5117,2.5138,2.5136,2.5232,2.5153,2.5153,2.5153,2.5153,0,2.4553,2.4607,2.4643,2.4682,2.4742,2.4763,2.4822,2.4846,2.4883,2.4926,2.4934,2.4974,2.4999,2.5044,2.506,2.5121,2.5133,2.5146,2.515,2.5146,2.5144,2.5164,2.516,2.5156,2.5155,2.5155,2.5154,0,2.4611,2.4638,2.4707,2.4756,2.4769,2.4812,2.4853,2.4891,2.4913,2.4968,2.4982,2.5016,2.5069,2.5093,2.5158,2.5169,2.5239,2.5239,2.5225,2.5226,2.5263,2.5259,2.5376,2.5392,2.5301,2.5302,2.5303,0,2.4658,2.47,2.4753,2.4783,2.481,2.4858,2.489,2.4912,2.4945,2.4997,2.5029,2.5082,2.5125,2.5209,2.5239,2.5289,2.5291,2.5328,2.5298,2.5293,2.5292,2.529,2.5295,2.5334,2.5334,2.5335,2.5336,0,2.4739,2.475,2.4796,2.4847,2.4886,2.4927,2.4967,2.4991,2.5019,2.5056,2.511,2.5144,2.521,2.5263,2.5315,2.534,2.5343,2.5345,2.5356,2.5353,2.5343,2.535,2.524,2.5342,2.5342,2.5341,2.5341,2.534,2.4794,2.4831,2.4875,2.4926,2.4959,2.4997,2.5035,2.5062,2.5108,2.5164,2.5174,2.5232,2.5274,2.5344,2.5371,2.5417,2.5408,2.5424,2.5429,2.5432,2.5435,2.5335,2.5426,2.5426,2.5426,2.5425,2.5425,0,2.4875,2.4904,2.4951,2.5008,2.5048,2.5047,2.5092,2.5126,2.5177,2.5216,2.5259,2.5322,2.5373,2.5407,2.5459,2.5489,2.5492,2.5502,2.5501,2.5506,2.5439,2.5425,2.5499,2.5499,2.5499,2.5499,2.5499,2.5499,2.4923,2.4987,2.5003,2.5083,2.5111,2.5168,2.5194,2.5229,2.526,2.533,2.5373,2.5395,2.5433,2.5488,2.5535,2.5543,2.5563,2.5573,2.5582,2.5519,2.5511,2.5504,2.549,2.5577,2.5577,2.5645,2.5646,2.5647]}]]